Location: Unspecified
(0.0000°N, 0.0000°E)
Time: 05:16:44
(UTC+00:00)

X-37B - Pass Details

Date: 09 August 2020
Orbit: 379 x 395 km, 45.0° (Epoch: 12 August)

Event Time Altitude Azimuth Distance (km) Brightness Sun altitude
Exits shadow 05:03:50 17° 199° (SSW) 1,071 2.5 -14.8°
Drops below altitude 10° 05:05:12 10° 177° (S) 1,425 3.3 -14.5°
Sets 05:07:38 0° 159° (SSE) 2,282 4.5 -13.9°
